User: anonymous   Login
Location: Liscomb Game Sanctuary
(45.1633°N, 62.5575°W)
Time: 21:29:20
(UTC-03:00)
Language:

Cosmos 921 Rocket - Orbit

View from above orbital plane
View from above orbital plane
View from above satellite
View from above satellite

Ground track
Ground track

The orbit data is extracted from the following two-line orbital elements,

1 10096U 77055B   19082.02713614  .00000041  00000-0  65765-5 0  9993
2 10096  75.8329 295.9574 0042547   5.9197 354.2487 14.88656972258044
Epoch (UTC): 23 March 2019 00:39:04
Eccentricity: 0.0042547
inclination: 75.8329°
perigee height: 572 km
apogee height: 632 km
right ascension of ascending node: 295.9574°
argument of perigee: 5.9197°
revolutions per day: 14.88656972
mean anomaly at epoch: 354.2487°
orbit number at epoch: 25804

The dashed part of the orbit path shows where the satellite is in the earth's shadow,  

DLR